Find Starlink 35896

NORAD ID: 66824 Int'l Des: 2025-280 Owner: SPXS Country: US Constellation: starlink operational
LEOCIRCULAR

Live Position

Loading 3D Globe...

About Starlink 35896

Description loading...

Upcoming Passes

Passes for default location (London). Set your location on the main map for personalized predictions.

Altitude History

Loading altitude history...

Two-Line Element Set

1 66824U 25280D 26106.94284353 -.00003187 00000-0 -25942-3 0 9992
2 66824 70.0023 238.0896 0003187 270.6209 89.4585 14.98332549 21809
Epoch: Apr 16, 2026 • Age: 14 hours

Current Status

Altitude 595.4 km
Velocity 7.56 km/s
Sub-Earth Point -70.06°S, 107.52°E
Launch Date Dec 2, 2025
Age 0.3 years
Type internet

Technical Details

Classification Payload
Mass 575.00 kg
Dry Mass 530.00 kg
Total Mass 575.00 kg
Length 0.30 m
Diameter 4.10 m
Span 29.00 m
Shape Box + pan
Manufacturer SPXS
Bus Type Starlink V2MO
Phase Status In Orbit
Owner/State SPXS/US

Most Searched